Weather History for Manning, SC

Change the Weather History Date:

Friday, April 26, 2013

  Actual Average (KCKI) Record (KCKI)
Temperature  
Mean Temperature 65 °F -  
Max Temperature 77 °F 76 °F 89 °F (2012)
Min Temperature 53 °F 49 °F 55 °F (2013)
Growing Degree Days 15 (Base 50)    
Moisture  
Dew Point 39 °F    
Average Humidity 47    
Maximum Humidity 82    
Minimum Humidity 6    
Precipitation  
Precipitation 0.00 in - - ()
Sea Level Pressure  
Sea Level Pressure 30.33 in    
Wind  
Wind Speed 3 mph (ENE)    
Max Wind Speed 9 mph    
Max Gust Speed -    
Visibility 9 miles    
Events      
Averages and records for this station are not official NWS values.
T = Trace of Precipitation, MM = Missing Value Source: NWS Daily Summary

Daily Weather History Graph

Daily Weather History Graph

Search for Another Location

Airport:

Trip Planner

Search our weather history database for the weather conditions in past years. The results will help you decide how hot, cold, wet, or windy it might be!

Date:

Astronomy

Apr. 26, 2013 Rise Set
Actual Time 6:37 AM EDT 8:00 PM EDT
Civil Twilight 6:11 AM EDT 8:26 PM EDT
Nautical Twilight 5:39 AM EDT 8:57 PM EDT
Astronomical Twilight 5:07 AM EDT 9:30 PM EDT
Moon 9:17 PM EDT (4/26) 7:06 AM EDT (4/26)
Length of Visible Light 14h 15m
Length of Day
13h 22m
Full, 99% of the Moon is Illuminated
Apr 26
Full
May 2
Last Quarter
May 9
New
May 18
First Quarter
May 25
Full

Hourly Weather History & Observations

Time (EDT) Temp. Dew Point Humidity Pressure Visibility Wind Dir Wind Speed Gust Speed Precip Events Conditions
12:15 AM 59.0 °F 46.4 °F 63% 30.24 in 10.0 mi Calm Calm - N/A   Clear
12:35 AM 59.0 °F 51.8 °F 77% 30.25 in 10.0 mi Calm Calm - N/A   Mostly Cloudy
12:55 AM 60.8 °F 55.4 °F 82% 30.25 in 0.2 mi Calm Calm - N/A   Overcast
1:35 AM 60.8 °F 51.8 °F 72% 30.25 in 0.2 mi Calm Calm - N/A   Overcast
1:55 AM 60.8 °F 53.6 °F 77% 30.25 in 0.2 mi ENE 3.5 mph - N/A   Overcast
2:15 AM 60.8 °F 51.8 °F 72% 30.25 in 0.5 mi Calm Calm - N/A   Overcast
2:35 AM 60.8 °F 53.6 °F 77% 30.25 in 2.0 mi ENE 3.5 mph - N/A   Overcast
2:55 AM 60.8 °F 53.6 °F 77% 30.25 in 5.0 mi Calm Calm - N/A   Overcast
3:15 AM 60.8 °F 55.4 °F 82% 30.24 in 7.0 mi Calm Calm - N/A   Overcast
3:35 AM 60.8 °F 55.4 °F 82% 30.25 in 7.0 mi Calm Calm - N/A   Overcast
3:55 AM 60.8 °F 55.4 °F 82% 30.25 in 7.0 mi Calm Calm - N/A   Overcast
4:15 AM 60.8 °F 53.6 °F 77% 30.25 in 7.0 mi Calm Calm - N/A   Overcast
4:35 AM 60.8 °F 53.6 °F 77% 30.26 in 7.0 mi Calm Calm - N/A   Overcast
4:55 AM 60.8 °F 53.6 °F 77% 30.26 in 7.0 mi NE 3.5 mph - N/A   Overcast
5:15 AM 60.8 °F 51.8 °F 72% 30.27 in 10.0 mi North 3.5 mph - N/A   Overcast
5:35 AM 60.8 °F 50.0 °F 68% 30.28 in 10.0 mi North 3.5 mph - N/A   Overcast
5:55 AM 60.8 °F 53.6 °F 77% 30.28 in 10.0 mi North 4.6 mph - N/A   Overcast
6:15 AM 60.8 °F 53.6 °F 77% 30.29 in 10.0 mi Calm Calm - N/A   Overcast
6:35 AM 60.8 °F 55.4 °F 82% 30.30 in 7.0 mi NNE 4.6 mph - N/A   Overcast
6:55 AM 60.8 °F 53.6 °F 77% 30.31 in 7.0 mi NE 3.5 mph - N/A   Overcast
7:15 AM 59.0 °F 51.8 °F 77% 30.32 in 10.0 mi NE 3.5 mph - N/A   Overcast
7:35 AM 60.8 °F 51.8 °F 72% 30.34 in 10.0 mi NE 3.5 mph - N/A   Overcast
7:55 AM 60.8 °F 51.8 °F 72% 30.35 in 10.0 mi NNE 6.9 mph - N/A   Mostly Cloudy
8:15 AM 60.8 °F 50.0 °F 68% 30.36 in 10.0 mi NNE 4.6 mph - N/A   Scattered Clouds
8:35 AM 60.8 °F 50.0 °F 68% 30.37 in 10.0 mi NE 3.5 mph - N/A   Mostly Cloudy
8:55 AM 62.6 °F 50.0 °F 63% 30.37 in 10.0 mi NNE 4.6 mph - N/A   Mostly Cloudy
9:15 AM 62.6 °F 50.0 °F 63% 30.37 in 10.0 mi Calm Calm - N/A   Scattered Clouds
9:35 AM 64.4 °F 48.2 °F 56% 30.38 in 10.0 mi Calm Calm - N/A   Scattered Clouds
9:55 AM 64.4 °F 46.4 °F 52% 30.39 in 10.0 mi ENE 5.8 mph - N/A   Clear
10:15 AM 66.2 °F 46.4 °F 49% 30.39 in 10.0 mi NNE 6.9 mph - N/A   Clear
10:35 AM 68.0 °F 46.4 °F 46% 30.40 in 10.0 mi NNE 6.9 mph - N/A   Clear
10:55 AM 69.8 °F 41.0 °F 35% 30.40 in 10.0 mi NNE 9.2 mph - N/A   Clear
11:15 AM 69.8 °F 14.0 °F 12% 30.40 in 10.0 mi ENE 5.8 mph - N/A   Clear
11:35 AM 71.6 °F 51.8 °F 50% 30.40 in 10.0 mi ENE 8.1 mph - N/A   Clear
12:15 PM 73.4 °F 50.0 °F 44% 30.39 in 10.0 mi East 8.1 mph - N/A   Clear
12:35 PM 73.4 °F 44.6 °F 36% 30.38 in 10.0 mi ENE 9.2 mph - N/A   Clear
12:55 PM 73.4 °F - N/A% 30.37 in 10.0 mi East 9.2 mph - N/A   Clear
1:15 PM 73.4 °F 44.6 °F 36% 30.36 in 10.0 mi East 5.8 mph - N/A   Clear
1:35 PM 75.2 °F 32.0 °F 21% 30.36 in 10.0 mi SE 3.5 mph - N/A   Clear
1:55 PM 75.2 °F 32.0 °F 21% 30.36 in 10.0 mi ENE 8.1 mph - N/A   Clear
2:15 PM 75.2 °F 32.0 °F 21% 30.36 in 10.0 mi SSE 9.2 mph - N/A   Clear
2:35 PM 75.2 °F 17.6 °F 11% 30.36 in 10.0 mi Calm Calm - N/A   Scattered Clouds
2:55 PM 77.0 °F 48.2 °F 36% 30.35 in 10.0 mi East 3.5 mph - N/A   Clear
3:15 PM 77.0 °F 6.8 °F 7% 30.34 in 10.0 mi NNE 5.8 mph - N/A   Scattered Clouds
3:35 PM 77.0 °F 5.0 °F 6% 30.34 in 10.0 mi Calm Calm - N/A   Scattered Clouds
3:55 PM 77.0 °F 10.4 °F 8% 30.33 in 10.0 mi SSW 6.9 mph - N/A   Mostly Cloudy
4:15 PM 77.0 °F 8.6 °F 7% 30.32 in 10.0 mi SW 4.6 mph - N/A   Mostly Cloudy
4:35 PM 77.0 °F 6.8 °F 7% 30.32 in 10.0 mi South 6.9 mph - N/A   Scattered Clouds
4:55 PM 77.0 °F 5.0 °F 6% 30.32 in 10.0 mi SSW 4.6 mph - N/A   Scattered Clouds
5:15 PM 77.0 °F 14.0 °F 9% 30.31 in 10.0 mi SSW 8.1 mph - N/A   Scattered Clouds
5:35 PM 77.0 °F 21.2 °F 12% 30.31 in 10.0 mi SSW 9.2 mph - N/A   Clear
5:55 PM 77.0 °F 33.8 °F 21% 30.31 in 10.0 mi South 6.9 mph - N/A   Clear
6:15 PM 75.2 °F 41.0 °F 29% 30.31 in 10.0 mi SSW 5.8 mph - N/A   Clear
6:35 PM 73.4 °F 42.8 °F 33% 30.31 in 10.0 mi SSW 5.8 mph - N/A   Clear
6:55 PM 73.4 °F 42.8 °F 33% 30.31 in 10.0 mi South 4.6 mph - N/A   Clear
7:15 PM 73.4 °F 42.8 °F 33% 30.32 in 10.0 mi South 4.6 mph - N/A   Clear
7:35 PM 71.6 °F 44.6 °F 38% 30.32 in 10.0 mi South 3.5 mph - N/A   Clear
7:55 PM 68.0 °F 46.4 °F 46% 30.33 in 10.0 mi Calm Calm - N/A   Clear
8:15 PM 64.4 °F 48.2 °F 56% 30.34 in 10.0 mi Calm Calm - N/A   Clear
8:35 PM 62.6 °F 37.4 °F 39% 30.34 in 10.0 mi Calm Calm - N/A   Clear
8:55 PM 60.8 °F 46.4 °F 59% 30.35 in 10.0 mi Calm Calm - N/A   Clear
9:15 PM 60.8 °F 41.0 °F 48% 30.35 in 10.0 mi Calm Calm - N/A   Clear
9:35 PM 60.8 °F 17.6 °F 19% 30.36 in 10.0 mi Calm Calm - N/A   Clear
9:55 PM 59.0 °F 33.8 °F 39% 30.37 in 10.0 mi Calm Calm - N/A   Clear
10:15 PM 59.0 °F 32.0 °F 36% 30.38 in 10.0 mi Calm Calm - N/A   Clear
10:35 PM 55.4 °F 1.4 °F 11% 30.36 in 10.0 mi Calm Calm - N/A   Clear
10:55 PM 55.4 °F -0.4 °F 10% 30.36 in 10.0 mi Calm Calm - N/A   Clear
11:15 PM 53.6 °F 21.2 °F 28% 30.35 in 10.0 mi Calm Calm - N/A   Clear
11:35 PM 53.6 °F -0.4 °F 11% 30.35 in 10.0 mi Calm Calm - N/A   Clear
11:55 PM 53.6 °F 32.0 °F 44% 30.34 in 10.0 mi Calm Calm - N/A   Clear